Regional Weather Roundup
Issued by NWS

Home | Current Version | Previous Version | Text Only | Print | Product List | Glossary Off
Versions: 1 2 3 4 5 6 7 8 9 10 11 12 13 14 15 16 17 18 19 20 21 22 23 24 25 26 27 28 29 30 31 32 33 34 35 36 37 38 39 40 41 42 43 44 45 46 47 48 49 50

206
ASUS45 KCYS 060410
RWRWY

WYOMING REGIONAL WEATHER ROUNDUP
NATIONAL WEATHER SERVICE CHEYENNE WY
900 PM MST MON DEC 05 2016

NOTE:  "FAIR" INDICATES FEW OR NO CLOUDS BELOW 12,000 FEET
WITH NO SIGNIFICANT WEATHER AND/OR OBSTRUCTIONS TO VISIBILITY.

WYZ001-060500-
YELLOWSTONE NATIONAL PARK

CITY           SKY/WX    TMP DP  RH WIND       PRES   REMARKS
LK YELLOWSTONE   N/A     -4  -7  87 NW5       29.83S WCI -15
W YELLOWSTONE  NOT AVBL

$$
WYZ002>013-054>058-071-098>099-060500-
NORTHERN WYOMING

CITY           SKY/WX    TMP DP  RH WIND       PRES   REMARKS
JACKSON        FAIR       0  -2  92 SE5       29.92S WCI -10
CODY           FAIR       0  -4  83 SW3       29.93F
GREYBULL       FAIR      16   7  67 NW8       29.99R WCI   5
WORLAND        FAIR      12   8  84 SW6       29.98S WCI   3
SHERIDAN       FAIR      12   2  64 W13       29.96F WCI  -3
BUFFALO        FAIR       7   0  73 S6        29.91S WCI  -3
GILLETTE       FAIR       7   2  80 W13       29.92S WCI  -9
HULETT         FAIR      12   3  67 SW6       29.92S WCI   3
NEWCASTLE      FAIR      14   7  73 N10G17    29.93R WCI   1

$$
WYZ014>020-022>026-101>103-060500-
CENTRAL WYOMING

CITY           SKY/WX    TMP DP  RH WIND       PRES   REMARKS
BIG PINEY      FAIR      -6 -13  71 E5        29.93R WCI -17
PINEDALE       FAIR      -8 -13  77 W6        29.93S WCI -21
DUBOIS         FAIR       0  -9  65 W14       29.86S WCI -19
LANDER         FAIR      11  -7  44 CALM      29.93R
RIVERTON       FAIR      10   5  80 CALM      29.93S
CASPER         FAIR       4   1  88 W10       29.93R WCI -11
DOUGLAS        CLOUDY    12   4  70 NW6       29.95R WCI   3

$$
WYZ021-027>030-104>119-060500-
SOUTHERN WYOMING

CITY           SKY/WX    TMP DP  RH WIND       PRES   REMARKS
EVANSTON       FAIR       5 -15  39 SE8       29.92S WCI  -8
FORT BRIDGER   FAIR      12 -11  35 W6        29.96S WCI   2
ROCK SPRINGS   FAIR       7  -6  55 CALM      29.94R
DIXON          FAIR       6  -6  57 CALM      29.97R
RAWLINS        FAIR      10  -8  44 W15G24    29.90R WCI  -7
SARATOGA       FAIR       7  -6  56 SW10      29.89R WCI  -8
LARAMIE        FAIR       2 -10  57 W6        29.84R WCI  -9
CHEYENNE       FAIR      15  -6  39 NW14G24   29.88R WCI   0
TORRINGTON     FAIR      17   6  62 NW14      29.94R WCI   3
PINE BLUFFS    FAIR      14  10  85 NW30G38   29.83F WCI  -7

$$




USA.gov is the U.S. government's official web portal to all federal, state and local government web resources and services.